Time,TemperatureF,DewpointF,PressureIn,WindDirection,WindDirectionDegrees,WindSpeedMPH,WindSpeedGustMPH,Humidity,HourlyPrecipIn,Conditions,Clouds,dailyrainin,SoftwareType,DateUTC
2013-09-30 00:02:00,62.1,60.9,30.00,SW,221,0.0,0.0,96,0.00,,,0.00,Wunderground v.1.15,2013-09-30 07:02:00,
2013-09-30 00:06:00,62.1,60.9,30.01,ENE,74,0.0,0.0,96,0.00,,,0.00,Wunderground v.1.15,2013-09-30 07:06:00,
2013-09-30 00:12:00,62.1,60.9,30.01,ENE,74,0.0,0.0,96,0.00,,,0.00,Wunderground v.1.15,2013-09-30 07:12:00,
2013-09-30 00:18:00,62.1,60.9,30.01,SW,220,0.0,0.0,96,0.00,,,0.00,Wunderground v.1.15,2013-09-30 07:18:00,
2013-09-30 00:20:00,62.1,61.2,30.00,SSE,157,0.0,0.0,97,0.00,,,0.00,Wunderground v.1.15,2013-09-30 07:20:00,
2013-09-30 00:24:00,62.1,60.9,30.01,SW,220,0.0,0.0,96,0.00,,,0.00,Wunderground v.1.15,2013-09-30 07:24:00,
2013-09-30 00:28:00,62.1,61.2,30.00,SSE,157,0.0,0.0,97,0.00,,,0.00,Wunderground v.1.15,2013-09-30 07:28:00,
2013-09-30 00:30:00,62.1,61.2,30.00,SSE,157,0.0,0.0,97,0.00,,,0.00,Wunderground v.1.15,2013-09-30 07:30:00,
2013-09-30 00:32:00,62.1,60.9,30.01,SW,220,0.0,0.0,96,0.00,,,0.00,Wunderground v.1.15,2013-09-30 07:32:00,
2013-09-30 00:38:00,62.1,60.9,30.01,SW,221,0.0,0.0,96,0.00,,,0.00,Wunderground v.1.15,2013-09-30 07:38:00,
2013-09-30 00:46:00,62.1,61.2,30.00,SSE,157,0.0,0.0,97,0.00,,,0.00,Wunderground v.1.15,2013-09-30 07:46:00,
2013-09-30 00:48:00,62.1,60.9,30.01,SW,221,0.0,0.0,96,0.00,,,0.00,Wunderground v.1.15,2013-09-30 07:48:00,
2013-09-30 00:54:00,62.1,60.9,30.00,SW,221,0.0,0.0,96,0.00,,,0.00,Wunderground v.1.15,2013-09-30 07:54:00,
2013-09-30 01:00:00,62.1,60.9,30.00,SW,221,0.0,0.0,96,0.00,,,0.00,Wunderground v.1.15,2013-09-30 08:00:00,
2013-09-30 01:06:00,62.1,60.9,30.00,SW,221,0.0,0.0,96,0.00,,,0.00,Wunderground v.1.15,2013-09-30 08:06:00,
2013-09-30 01:14:00,62.1,61.2,30.00,SW,221,0.0,0.0,97,0.00,,,0.00,Wunderground v.1.15,2013-09-30 08:14:00,
2013-09-30 01:22:00,62.1,61.2,30.00,SSE,157,0.0,0.0,97,0.00,,,0.00,Wunderground v.1.15,2013-09-30 08:22:00,
2013-09-30 01:32:00,62.1,61.2,30.00,SSE,157,0.0,0.0,97,0.00,,,0.00,Wunderground v.1.15,2013-09-30 08:32:00,
2013-09-30 01:38:00,62.1,61.2,30.00,SSE,157,0.0,0.0,97,0.00,,,0.00,Wunderground v.1.15,2013-09-30 08:38:00,
2013-09-30 01:44:00,62.1,61.2,30.00,SSE,157,0.0,0.0,97,0.00,,,0.00,Wunderground v.1.15,2013-09-30 08:44:00,
2013-09-30 01:50:00,62.1,61.2,30.00,SSE,157,0.0,0.0,97,0.00,,,0.00,Wunderground v.1.15,2013-09-30 08:50:00,
2013-09-30 01:56:00,62.1,61.2,30.00,SSE,157,0.0,0.0,97,0.00,,,0.00,Wunderground v.1.15,2013-09-30 08:56:00,
2013-09-30 02:02:00,62.1,61.2,30.00,SSE,157,0.0,0.0,97,0.00,,,0.00,Wunderground v.1.15,2013-09-30 09:02:00,
2013-09-30 02:08:00,62.1,61.2,30.00,SSE,157,0.0,0.0,97,0.00,,,0.00,Wunderground v.1.15,2013-09-30 09:08:00,
2013-09-30 02:14:00,62.1,61.2,30.00,NW,317,0.0,1.0,97,0.00,,,0.00,Wunderground v.1.15,2013-09-30 09:14:00,
2013-09-30 02:20:00,62.1,61.2,30.00,NW,317,0.0,0.0,97,0.00,,,0.00,Wunderground v.1.15,2013-09-30 09:20:00,
2013-09-30 02:26:00,62.1,61.2,30.00,NW,317,0.0,0.0,97,0.00,,,0.00,Wunderground v.1.15,2013-09-30 09:26:00,
2013-09-30 02:32:00,62.1,61.2,30.00,NW,317,0.0,0.0,97,0.00,,,0.00,Wunderground v.1.15,2013-09-30 09:32:00,
2013-09-30 02:38:00,62.1,61.2,30.00,NW,317,0.0,0.0,97,0.00,,,0.00,Wunderground v.1.15,2013-09-30 09:38:00,
2013-09-30 02:44:00,62.3,61.4,29.99,NW,317,0.0,0.0,97,0.00,,,0.00,Wunderground v.1.15,2013-09-30 09:44:00,
2013-09-30 02:50:00,62.1,61.2,30.00,NW,317,0.0,0.0,97,0.00,,,0.01,Wunderground v.1.15,2013-09-30 09:50:00,
2013-09-30 02:56:00,62.3,61.4,29.99,NW,317,0.0,0.0,97,0.00,,,0.01,Wunderground v.1.15,2013-09-30 09:56:00,
2013-09-30 03:02:00,62.3,61.4,29.99,NW,317,0.0,0.0,97,0.00,,,0.01,Wunderground v.1.15,2013-09-30 10:02:00,
2013-09-30 03:08:00,62.3,61.4,29.99,NW,317,0.0,0.0,97,0.00,,,0.01,Wunderground v.1.15,2013-09-30 10:08:00,
2013-09-30 03:14:00,62.3,61.4,29.99,NW,317,0.0,0.0,97,0.00,,,0.01,Wunderground v.1.15,2013-09-30 10:14:00,
2013-09-30 03:20:00,62.3,61.4,29.99,NW,317,0.0,0.0,97,0.00,,,0.01,Wunderground v.1.15,2013-09-30 10:20:00,
2013-09-30 03:26:00,62.3,61.4,29.99,NW,317,0.0,0.0,97,0.00,,,0.01,Wunderground v.1.15,2013-09-30 10:26:00,
2013-09-30 03:32:00,62.1,61.2,29.99,West,276,0.0,2.0,97,0.00,,,0.01,Wunderground v.1.15,2013-09-30 10:32:00,
2013-09-30 03:38:00,62.0,61.1,29.99,WSW,246,1.0,3.0,97,0.00,,,0.01,Wunderground v.1.15,2013-09-30 10:38:00,
2013-09-30 03:44:00,61.8,60.9,29.99,SW,229,1.0,1.0,97,0.00,,,0.01,Wunderground v.1.15,2013-09-30 10:44:00,
2013-09-30 03:50:00,61.6,60.4,29.99,WNW,283,1.0,1.0,96,0.00,,,0.01,Wunderground v.1.15,2013-09-30 10:50:00,
2013-09-30 03:56:00,61.5,60.3,29.99,NNW,340,1.0,1.0,96,0.00,,,0.01,Wunderground v.1.15,2013-09-30 10:56:00,
2013-09-30 04:02:00,61.3,60.2,29.99,NW,313,0.0,2.0,96,0.00,,,0.01,Wunderground v.1.15,2013-09-30 11:02:00,
2013-09-30 04:08:00,61.3,60.2,29.99,West,265,0.0,2.0,96,0.00,,,0.01,Wunderground v.1.15,2013-09-30 11:08:00,
2013-09-30 04:14:00,61.3,60.2,29.99,West,259,0.0,1.0,96,0.00,,,0.01,Wunderground v.1.15,2013-09-30 11:14:00,
2013-09-30 04:20:00,61.3,60.2,29.99,WNW,293,0.0,3.0,96,0.00,,,0.01,Wunderground v.1.15,2013-09-30 11:20:00,
2013-09-30 04:26:00,61.3,60.2,29.99,WNW,294,0.0,3.0,96,0.00,,,0.02,Wunderground v.1.15,2013-09-30 11:26:00,
2013-09-30 04:32:00,61.3,60.2,29.98,WNW,294,0.0,0.0,96,0.00,,,0.02,Wunderground v.1.15,2013-09-30 11:32:00,
2013-09-30 04:38:00,61.3,60.2,29.98,WNW,294,0.0,0.0,96,0.00,,,0.02,Wunderground v.1.15,2013-09-30 11:38:00,
2013-09-30 04:44:00,61.5,60.3,29.98,WNW,294,0.0,0.0,96,0.00,,,0.03,Wunderground v.1.15,2013-09-30 11:44:00,
2013-09-30 04:50:00,61.3,60.2,29.98,WNW,294,0.0,0.0,96,0.00,,,0.03,Wunderground v.1.15,2013-09-30 11:50:00,
2013-09-30 04:56:00,61.3,60.2,29.98,WNW,294,0.0,0.0,96,0.00,,,0.03,Wunderground v.1.15,2013-09-30 11:56:00,
2013-09-30 05:02:00,61.3,60.2,29.98,WNW,294,0.0,0.0,96,0.00,,,0.03,Wunderground v.1.15,2013-09-30 12:02:00,
2013-09-30 05:08:00,61.3,60.2,29.99,WNW,294,0.0,0.0,96,0.00,,,0.03,Wunderground v.1.15,2013-09-30 12:08:00,
2013-09-30 05:14:00,61.3,60.2,29.99,WNW,294,0.0,0.0,96,0.00,,,0.03,Wunderground v.1.15,2013-09-30 12:14:00,
2013-09-30 05:20:00,61.3,60.2,29.98,WNW,294,0.0,0.0,96,0.00,,,0.03,Wunderground v.1.15,2013-09-30 12:20:00,
2013-09-30 05:26:00,61.3,60.2,29.98,WNW,294,0.0,0.0,96,0.00,,,0.03,Wunderground v.1.15,2013-09-30 12:26:00,
2013-09-30 05:32:00,61.3,60.2,29.98,WNW,294,0.0,0.0,96,0.00,,,0.03,Wunderground v.1.15,2013-09-30 12:32:00,
2013-09-30 05:38:00,61.3,60.2,29.98,WNW,294,0.0,0.0,96,0.00,,,0.03,Wunderground v.1.15,2013-09-30 12:38:00,
2013-09-30 05:44:00,61.2,60.1,29.98,South,180,0.0,0.0,96,0.00,,,0.03,Wunderground v.1.15,2013-09-30 12:44:00,
2013-09-30 05:50:00,61.0,59.9,29.98,South,170,0.0,0.0,96,0.00,,,0.03,Wunderground v.1.15,2013-09-30 12:50:00,
2013-09-30 05:56:00,61.0,59.9,29.98,SSW,213,0.0,2.0,96,0.00,,,0.03,Wunderground v.1.15,2013-09-30 12:56:00,
2013-09-30 06:02:00,60.9,59.8,29.98,SSW,213,0.0,0.0,96,0.00,,,0.03,Wunderground v.1.15,2013-09-30 13:02:00,
2013-09-30 06:08:00,60.9,59.8,29.98,SSW,213,0.0,0.0,96,0.00,,,0.03,Wunderground v.1.15,2013-09-30 13:08:00,
2013-09-30 06:14:00,60.9,60.0,29.98,SSW,213,0.0,0.0,97,0.00,,,0.03,Wunderground v.1.15,2013-09-30 13:14:00,
2013-09-30 06:20:00,60.9,60.0,29.98,WNW,303,0.0,0.0,97,0.00,,,0.03,Wunderground v.1.15,2013-09-30 13:20:00,
2013-09-30 06:26:00,60.9,60.0,29.98,WNW,303,0.0,0.0,97,0.00,,,0.03,Wunderground v.1.15,2013-09-30 13:26:00,
2013-09-30 06:32:00,60.9,60.0,29.98,WNW,303,0.0,0.0,97,0.00,,,0.03,Wunderground v.1.15,2013-09-30 13:32:00,
2013-09-30 06:38:00,60.9,60.0,29.98,WSW,238,0.0,1.0,97,0.00,,,0.03,Wunderground v.1.15,2013-09-30 13:38:00,
2013-09-30 06:44:00,60.9,60.0,29.98,WNW,284,0.0,2.0,97,0.00,,,0.03,Wunderground v.1.15,2013-09-30 13:44:00,
2013-09-30 06:50:00,60.9,60.0,29.99,West,274,1.0,1.0,97,0.00,,,0.03,Wunderground v.1.15,2013-09-30 13:50:00,
2013-09-30 06:56:00,61.0,60.1,29.98,WSW,253,0.0,1.0,97,0.00,,,0.03,Wunderground v.1.15,2013-09-30 13:56:00,
2013-09-30 07:02:00,61.0,60.1,29.99,WSW,253,0.0,0.0,97,0.00,,,0.03,Wunderground v.1.15,2013-09-30 14:02:00,
2013-09-30 07:08:00,61.0,60.1,29.99,WSW,253,0.0,2.0,97,0.00,,,0.03,Wunderground v.1.15,2013-09-30 14:08:00,
2013-09-30 08:54:00,61.8,61.2,30.00,SSW,213,0.0,0.0,98,0.00,,,0.03,Wunderground v.1.15,2013-09-30 15:54:00,
2013-09-30 09:00:00,61.8,61.2,30.01,WSW,240,1.0,1.0,98,0.00,,,0.03,Wunderground v.1.15,2013-09-30 16:00:00,
2013-09-30 09:06:00,61.8,61.2,30.01,WSW,241,1.0,4.0,98,0.00,,,0.03,Wunderground v.1.15,2013-09-30 16:06:00,
2013-09-30 09:12:00,62.0,61.4,30.01,WSW,241,0.0,0.0,98,0.00,,,0.03,Wunderground v.1.15,2013-09-30 16:12:00,
2013-09-30 09:18:00,62.1,61.5,30.01,WSW,241,0.0,0.0,98,0.00,,,0.03,Wunderground v.1.15,2013-09-30 16:18:00,
2013-09-30 09:24:00,62.3,61.7,30.01,WSW,241,0.0,0.0,98,0.00,,,0.03,Wunderground v.1.15,2013-09-30 16:24:00,
2013-09-30 09:30:00,62.3,61.7,30.01,WSW,241,0.0,0.0,98,0.00,,,0.03,Wunderground v.1.15,2013-09-30 16:30:00,
2013-09-30 09:36:00,62.3,61.4,30.01,WSW,241,0.0,0.0,97,0.00,,,0.03,Wunderground v.1.15,2013-09-30 16:36:00,
2013-09-30 09:42:00,62.3,61.4,30.02,WSW,241,0.0,0.0,97,0.00,,,0.03,Wunderground v.1.15,2013-09-30 16:42:00,
2013-09-30 09:48:00,62.4,61.8,30.02,WSW,241,0.0,0.0,98,0.00,,,0.03,Wunderground v.1.15,2013-09-30 16:48:00,
2013-09-30 09:54:00,62.6,61.7,30.02,WSW,241,0.0,0.0,97,0.00,,,0.03,Wunderground v.1.15,2013-09-30 16:54:00,
2013-09-30 10:00:00,62.4,61.5,30.02,NW,316,0.0,1.0,97,0.00,,,0.03,Wunderground v.1.15,2013-09-30 17:00:00,
2013-09-30 10:06:00,62.3,61.4,30.02,WNW,295,1.0,5.0,97,0.00,,,0.03,Wunderground v.1.15,2013-09-30 17:06:00,
2013-09-30 10:12:00,62.1,60.9,30.02,NW,307,2.0,3.0,96,0.00,,,0.03,Wunderground v.1.15,2013-09-30 17:12:00,
2013-09-30 10:18:00,62.3,61.1,30.02,NW,309,2.0,3.0,96,0.00,,,0.03,Wunderground v.1.15,2013-09-30 17:18:00,
2013-09-30 10:24:00,62.7,61.5,30.02,NW,309,1.0,2.0,96,0.00,,,0.03,Wunderground v.1.15,2013-09-30 17:24:00,
2013-09-30 10:30:00,63.2,62.0,30.02,NNE,17,0.0,0.0,96,0.00,,,0.03,Wunderground v.1.15,2013-09-30 17:30:00,
2013-09-30 10:36:00,63.5,62.0,30.02,North,5,0.0,0.0,95,0.00,,,0.03,Wunderground v.1.15,2013-09-30 17:36:00,
2013-09-30 10:42:00,63.9,62.4,30.01,North,5,0.0,0.0,95,0.00,,,0.03,Wunderground v.1.15,2013-09-30 17:42:00,
2013-09-30 10:48:00,64.0,62.2,30.01,North,5,0.0,0.0,94,0.00,,,0.03,Wunderground v.1.15,2013-09-30 17:48:00,
2013-09-30 10:54:00,64.2,62.1,30.02,NW,318,0.0,0.0,93,0.00,,,0.03,Wunderground v.1.15,2013-09-30 17:54:00,
2013-09-30 11:00:00,64.2,61.8,30.01,NE,44,0.0,0.0,92,0.00,,,0.03,Wunderground v.1.15,2013-09-30 18:00:00,
2013-09-30 11:06:00,64.3,61.3,30.01,ESE,121,0.0,1.0,90,0.00,,,0.03,Wunderground v.1.15,2013-09-30 18:06:00,
2013-09-30 11:12:00,64.3,60.7,30.01,WNW,303,0.0,3.0,88,0.00,,,0.03,Wunderground v.1.15,2013-09-30 18:12:00,
2013-09-30 11:18:00,64.2,60.6,30.01,NW,309,2.0,3.0,88,0.00,,,0.03,Wunderground v.1.15,2013-09-30 18:18:00,
2013-09-30 11:24:00,64.2,60.6,30.01,WSW,237,3.0,3.0,88,0.00,,,0.03,Wunderground v.1.15,2013-09-30 18:24:00,
2013-09-30 11:30:00,64.2,60.9,30.01,WSW,251,3.0,3.0,89,0.00,,,0.03,Wunderground v.1.15,2013-09-30 18:30:00,
2013-09-30 11:36:00,64.3,61.0,30.01,WNW,300,3.0,4.0,89,0.00,,,0.03,Wunderground v.1.15,2013-09-30 18:36:00,
2013-09-30 11:42:00,64.5,61.2,30.01,West,269,3.0,3.0,89,0.00,,,0.03,Wunderground v.1.15,2013-09-30 18:42:00,
2013-09-30 11:48:00,64.5,60.9,30.01,SW,216,2.0,3.0,88,0.00,,,0.03,Wunderground v.1.15,2013-09-30 18:48:00,
2013-09-30 11:54:00,64.5,60.9,30.01,SW,229,3.0,3.0,88,0.00,,,0.03,Wunderground v.1.15,2013-09-30 18:54:00,
2013-09-30 12:00:00,64.7,61.1,30.01,SE,146,2.0,3.0,88,0.00,,,0.03,Wunderground v.1.15,2013-09-30 19:00:00,
2013-09-30 12:06:00,64.7,60.7,30.01,WNW,298,3.0,4.0,87,0.00,,,0.03,Wunderground v.1.15,2013-09-30 19:06:00,
2013-09-30 12:12:00,64.7,61.1,30.01,West,279,3.0,4.0,88,0.00,,,0.03,Wunderground v.1.15,2013-09-30 19:12:00,
2013-09-30 12:18:00,64.7,60.7,30.01,SW,223,2.0,4.0,87,0.00,,,0.03,Wunderground v.1.15,2013-09-30 19:18:00,
2013-09-30 12:24:00,64.8,61.5,30.01,SSW,211,2.0,3.0,89,0.00,,,0.03,Wunderground v.1.15,2013-09-30 19:24:00,
2013-09-30 12:30:00,64.8,60.8,30.01,West,269,3.0,3.0,87,0.00,,,0.03,Wunderground v.1.15,2013-09-30 19:30:00,
2013-09-30 12:36:00,65.0,61.0,30.01,WNW,295,3.0,4.0,87,0.00,,,0.03,Wunderground v.1.15,2013-09-30 19:36:00,
2013-09-30 12:42:00,65.0,60.0,30.01,West,275,2.0,4.0,84,0.00,,,0.03,Wunderground v.1.15,2013-09-30 19:42:00,
2013-09-30 12:48:00,65.5,60.2,30.00,East,80,3.0,4.0,83,0.00,,,0.03,Wunderground v.1.15,2013-09-30 19:48:00,
2013-09-30 12:54:00,66.0,60.7,30.00,SE,126,1.0,3.0,83,0.00,,,0.03,Wunderground v.1.15,2013-09-30 19:54:00,
2013-09-30 13:00:00,66.6,61.3,30.00,SW,215,1.0,1.0,83,0.00,,,0.03,Wunderground v.1.15,2013-09-30 20:00:00,
2013-09-30 13:06:00,66.6,60.9,30.00,West,277,1.0,1.0,82,0.00,,,0.03,Wunderground v.1.15,2013-09-30 20:06:00,
2013-09-30 13:12:00,66.4,61.1,30.00,WNW,295,1.0,3.0,83,0.00,,,0.03,Wunderground v.1.15,2013-09-30 20:12:00,
2013-09-30 13:18:00,66.3,61.0,30.00,WSW,255,2.0,4.0,83,0.00,,,0.03,Wunderground v.1.15,2013-09-30 20:18:00,
2013-09-30 13:24:00,66.4,60.7,30.00,South,178,3.0,4.0,82,0.00,,,0.03,Wunderground v.1.15,2013-09-30 20:24:00,
2013-09-30 13:30:00,66.4,60.7,29.99,WSW,248,3.0,3.0,82,0.00,,,0.03,Wunderground v.1.15,2013-09-30 20:30:00,
2013-09-30 13:36:00,66.4,61.1,29.99,SW,225,2.0,3.0,83,0.00,,,0.03,Wunderground v.1.15,2013-09-30 20:36:00,
2013-09-30 13:42:00,66.6,61.3,29.99,SW,225,1.0,1.0,83,0.00,,,0.03,Wunderground v.1.15,2013-09-30 20:42:00,
2013-09-30 13:48:00,66.8,61.5,29.99,SW,234,0.0,1.0,83,0.00,,,0.03,Wunderground v.1.15,2013-09-30 20:48:00,
2013-09-30 13:54:00,66.8,61.1,29.99,WNW,286,2.0,6.0,82,0.00,,,0.03,Wunderground v.1.15,2013-09-30 20:54:00,
2013-09-30 14:00:00,67.1,61.4,29.98,SSW,212,2.0,2.0,82,0.00,,,0.03,Wunderground v.1.15,2013-09-30 21:00:00,
2013-09-30 14:06:00,67.6,62.3,29.98,WSW,253,2.0,4.0,83,0.00,,,0.03,Wunderground v.1.15,2013-09-30 21:06:00,
2013-09-30 14:12:00,68.1,61.7,29.98,NNW,330,2.0,3.0,80,0.00,,,0.03,Wunderground v.1.15,2013-09-30 21:12:00,
2013-09-30 14:18:00,68.1,62.0,29.98,West,275,2.0,6.0,81,0.00,,,0.03,Wunderground v.1.15,2013-09-30 21:18:00,
2013-09-30 14:24:00,68.1,61.7,29.98,ESE,116,2.0,2.0,80,0.00,,,0.03,Wunderground v.1.15,2013-09-30 21:24:00,
2013-09-30 14:30:00,68.1,61.7,29.98,NNE,30,1.0,1.0,80,0.00,,,0.03,Wunderground v.1.15,2013-09-30 21:30:00,
2013-09-30 14:36:00,68.3,61.9,29.97,South,183,1.0,3.0,80,0.00,,,0.03,Wunderground v.1.15,2013-09-30 21:36:00,
2013-09-30 14:42:00,68.6,62.2,29.97,SW,234,1.0,1.0,80,0.00,,,0.03,Wunderground v.1.15,2013-09-30 21:42:00,
2013-09-30 14:48:00,68.9,61.8,29.97,North,5,1.0,1.0,78,0.00,,,0.03,Wunderground v.1.15,2013-09-30 21:48:00,
2013-09-30 14:54:00,69.1,61.9,29.97,SSW,204,1.0,4.0,78,0.00,,,0.03,Wunderground v.1.15,2013-09-30 21:54:00,
2013-09-30 15:00:00,69.3,61.8,29.97,WSW,251,1.0,1.0,77,0.00,,,0.03,Wunderground v.1.15,2013-09-30 22:00:00,
2013-09-30 15:06:00,69.6,62.4,29.97,SW,230,1.0,2.0,78,0.00,,,0.03,Wunderground v.1.15,2013-09-30 22:06:00,
2013-09-30 15:12:00,70.6,62.3,29.97,ESE,107,0.0,1.0,75,0.00,,,0.03,Wunderground v.1.15,2013-09-30 22:12:00,
2013-09-30 15:18:00,70.4,62.1,29.97,ESE,123,0.0,4.0,75,0.00,,,0.03,Wunderground v.1.15,2013-09-30 22:18:00,
2013-09-30 15:24:00,70.6,62.3,29.96,WSW,252,0.0,3.0,75,0.00,,,0.03,Wunderground v.1.15,2013-09-30 22:24:00,
2013-09-30 15:30:00,70.6,61.9,29.96,NW,304,0.0,0.0,74,0.00,,,0.03,Wunderground v.1.15,2013-09-30 22:30:00,
2013-09-30 15:36:00,70.6,62.3,29.96,SW,221,0.0,1.0,75,0.00,,,0.03,Wunderground v.1.15,2013-09-30 22:36:00,
2013-09-30 15:42:00,70.3,62.0,29.96,SSE,151,0.0,1.0,75,0.00,,,0.03,Wunderground v.1.15,2013-09-30 22:42:00,
2013-09-30 15:48:00,70.3,62.0,29.96,West,269,0.0,2.0,75,0.00,,,0.03,Wunderground v.1.15,2013-09-30 22:48:00,
2013-09-30 15:54:00,70.1,61.8,29.96,WNW,298,1.0,4.0,75,0.00,,,0.03,Wunderground v.1.15,2013-09-30 22:54:00,
2013-09-30 16:00:00,69.3,62.1,29.96,WNW,302,3.0,5.0,78,0.00,,,0.03,Wunderground v.1.15,2013-09-30 23:00:00,
2013-09-30 16:06:00,68.4,62.0,29.96,NNW,329,5.0,5.0,80,0.00,,,0.03,Wunderground v.1.15,2013-09-30 23:06:00,
2013-09-30 16:12:00,67.9,61.9,29.96,West,281,4.0,5.0,81,0.00,,,0.04,Wunderground v.1.15,2013-09-30 23:12:00,
2013-09-30 16:18:00,67.9,61.9,29.96,WSW,251,3.0,5.0,81,0.00,,,0.04,Wunderground v.1.15,2013-09-30 23:18:00,
2013-09-30 16:24:00,68.3,62.2,29.96,West,269,3.0,4.0,81,0.00,,,0.04,Wunderground v.1.15,2013-09-30 23:24:00,
2013-09-30 16:30:00,68.4,62.0,29.96,WNW,303,3.0,4.0,80,0.00,,,0.04,Wunderground v.1.15,2013-09-30 23:30:00,
2013-09-30 16:36:00,68.4,62.0,29.95,NW,321,2.0,4.0,80,0.00,,,0.04,Wunderground v.1.15,2013-09-30 23:36:00,
2013-09-30 16:42:00,68.4,61.6,29.95,West,276,3.0,3.0,79,0.00,,,0.04,Wunderground v.1.15,2013-09-30 23:42:00,
2013-09-30 16:48:00,68.3,61.5,29.95,West,280,3.0,3.0,79,0.00,,,0.04,Wunderground v.1.15,2013-09-30 23:48:00,
2013-09-30 16:54:00,68.4,61.6,29.95,NNE,24,1.0,3.0,79,0.00,,,0.04,Wunderground v.1.15,2013-09-30 23:54:00,
2013-09-30 17:00:00,68.9,61.4,29.95,NNE,22,1.0,2.0,77,0.00,,,0.04,Wunderground v.1.15,2013-10-01 00:00:00,
2013-09-30 17:06:00,69.9,62.0,29.94,NNE,22,1.0,2.0,76,0.00,,,0.04,Wunderground v.1.15,2013-10-01 00:06:00,
2013-09-30 17:12:00,71.1,62.0,29.94,West,273,1.0,1.0,73,0.00,,,0.04,Wunderground v.1.15,2013-10-01 00:12:00,
2013-09-30 17:18:00,71.5,62.0,29.94,West,274,1.0,1.0,72,0.00,,,0.04,Wunderground v.1.15,2013-10-01 00:18:00,
2013-09-30 17:24:00,72.1,61.8,29.94,NNE,22,0.0,2.0,70,0.00,,,0.04,Wunderground v.1.15,2013-10-01 00:24:00,
2013-09-30 17:30:00,72.7,62.3,29.94,NW,309,1.0,2.0,70,0.00,,,0.04,Wunderground v.1.15,2013-10-01 00:30:00,
2013-09-30 17:36:00,72.7,62.3,29.93,NW,305,1.0,2.0,70,0.00,,,0.04,Wunderground v.1.15,2013-10-01 00:36:00,
2013-09-30 17:42:00,72.7,62.8,29.93,NW,305,0.0,0.0,71,0.00,,,0.04,Wunderground v.1.15,2013-10-01 00:42:00,
2013-09-30 17:48:00,73.3,62.1,29.93,NW,305,0.0,0.0,68,0.00,,,0.04,Wunderground v.1.15,2013-10-01 00:48:00,
2013-09-30 17:54:00,73.7,62.5,29.93,SSW,198,0.0,3.0,68,0.00,,,0.04,Wunderground v.1.15,2013-10-01 00:54:00,
2013-09-30 18:00:00,73.0,63.0,29.93,WSW,257,1.0,5.0,71,0.00,,,0.04,Wunderground v.1.15,2013-10-01 01:00:00,
2013-09-30 18:06:00,71.5,62.4,29.93,WNW,284,3.0,5.0,73,0.00,,,0.04,Wunderground v.1.15,2013-10-01 01:06:00,
2013-09-30 18:12:00,70.6,61.9,29.93,WSW,239,1.0,2.0,74,0.00,,,0.04,Wunderground v.1.15,2013-10-01 01:12:00,
2013-09-30 18:18:00,69.9,61.2,29.93,SW,227,1.0,2.0,74,0.00,,,0.04,Wunderground v.1.15,2013-10-01 01:18:00,
2013-09-30 18:24:00,69.1,60.8,29.93,West,269,0.0,2.0,75,0.00,,,0.04,Wunderground v.1.15,2013-10-01 01:24:00,
2013-09-30 18:30:00,67.8,60.7,29.93,SW,233,2.0,2.0,78,0.00,,,0.04,Wunderground v.1.15,2013-10-01 01:30:00,
2013-09-30 18:36:00,66.9,60.5,29.93,West,279,2.0,2.0,80,0.00,,,0.04,Wunderground v.1.15,2013-10-01 01:36:00,
2013-09-30 18:42:00,66.3,59.9,29.93,West,279,1.0,1.0,80,0.00,,,0.04,Wunderground v.1.15,2013-10-01 01:42:00,
2013-09-30 18:48:00,66.0,60.0,29.93,WSW,245,0.0,2.0,81,0.00,,,0.04,Wunderground v.1.15,2013-10-01 01:48:00,
2013-09-30 18:54:00,65.3,60.0,29.93,WSW,245,1.0,2.0,83,0.00,,,0.04,Wunderground v.1.15,2013-10-01 01:54:00,
2013-09-30 19:00:00,64.8,59.9,29.93,NW,306,1.0,1.0,84,0.00,,,0.04,Wunderground v.1.15,2013-10-01 02:00:00,
2013-09-30 19:06:00,64.3,59.4,29.93,NW,306,1.0,1.0,84,0.00,,,0.04,Wunderground v.1.15,2013-10-01 02:06:00,
2013-09-30 19:12:00,64.0,59.4,29.93,West,280,0.0,1.0,85,0.00,,,0.04,Wunderground v.1.15,2013-10-01 02:12:00,
2013-09-30 19:18:00,63.7,59.1,29.93,West,280,0.0,1.0,85,0.00,,,0.04,Wunderground v.1.15,2013-10-01 02:18:00,
2013-09-30 19:24:00,63.4,59.1,29.93,West,280,0.0,0.0,86,0.00,,,0.04,Wunderground v.1.15,2013-10-01 02:24:00,
2013-09-30 19:30:00,63.2,58.9,29.93,West,280,0.0,0.0,86,0.00,,,0.04,Wunderground v.1.15,2013-10-01 02:30:00,
2013-09-30 19:36:00,62.9,59.0,29.93,West,280,0.0,0.0,87,0.00,,,0.04,Wunderground v.1.15,2013-10-01 02:36:00,
2013-09-30 19:42:00,62.6,58.7,29.93,West,280,0.0,0.0,87,0.00,,,0.04,Wunderground v.1.15,2013-10-01 02:42:00,
2013-09-30 19:48:00,62.1,58.5,29.94,West,280,0.0,0.0,88,0.00,,,0.04,Wunderground v.1.15,2013-10-01 02:48:00,
2013-09-30 19:54:00,61.8,57.9,29.94,West,280,0.0,0.0,87,0.00,,,0.04,Wunderground v.1.15,2013-10-01 02:54:00,
2013-09-30 20:00:00,61.3,57.7,29.94,West,280,0.0,0.0,88,0.00,,,0.04,Wunderground v.1.15,2013-10-01 03:00:00,
2013-09-30 20:02:00,57.8,55.5,29.94,West,280,0.0,0.0,92,0.00,,,0.04,Wunderground v.1.15,2013-10-01 03:02:00,
2013-09-30 20:04:00,57.6,55.3,29.95,West,280,0.0,0.0,92,0.00,,,0.04,Wunderground v.1.15,2013-10-01 03:04:00,
2013-09-30 20:06:00,61.0,57.7,29.94,West,280,0.0,0.0,89,0.00,,,0.04,Wunderground v.1.15,2013-10-01 03:06:00,
2013-09-30 20:08:00,57.5,55.2,29.95,West,280,0.0,0.0,92,0.00,,,0.04,Wunderground v.1.15,2013-10-01 03:08:00,
2013-09-30 20:10:00,57.5,55.5,29.95,West,280,0.0,0.0,93,0.00,,,0.04,Wunderground v.1.15,2013-10-01 03:10:00,
2013-09-30 20:12:00,60.5,57.2,29.94,West,280,0.0,0.0,89,0.00,,,0.04,Wunderground v.1.15,2013-10-01 03:12:00,
2013-09-30 20:14:00,57.3,55.3,29.95,West,280,0.0,0.0,93,0.00,,,0.04,Wunderground v.1.15,2013-10-01 03:14:00,
2013-09-30 20:16:00,57.2,55.2,29.95,West,280,0.0,0.0,93,0.00,,,0.04,Wunderground v.1.15,2013-10-01 03:16:00,
2013-09-30 20:18:00,60.4,57.1,29.94,West,280,0.0,0.0,89,0.00,,,0.04,Wunderground v.1.15,2013-10-01 03:18:00,
2013-09-30 20:20:00,57.0,55.0,29.94,West,280,0.0,0.0,93,0.00,,,0.04,Wunderground v.1.15,2013-10-01 03:20:00,
2013-09-30 20:22:00,56.9,54.9,29.95,West,280,0.0,0.0,93,0.00,,,0.04,Wunderground v.1.15,2013-10-01 03:22:00,
2013-09-30 20:24:00,59.9,57.0,29.94,West,280,0.0,0.0,90,0.00,,,0.04,Wunderground v.1.15,2013-10-01 03:24:00,
2013-09-30 20:26:00,56.7,54.7,29.94,West,280,0.0,0.0,93,0.00,,,0.04,Wunderground v.1.15,2013-10-01 03:26:00,
2013-09-30 20:28:00,56.6,54.6,29.95,West,280,0.0,0.0,93,0.00,,,0.04,Wunderground v.1.15,2013-10-01 03:28:00,
2013-09-30 20:30:00,59.6,57.0,29.94,West,280,0.0,0.0,91,0.00,,,0.04,Wunderground v.1.15,2013-10-01 03:30:00,
2013-09-30 20:32:00,56.2,54.2,29.94,West,280,0.0,0.0,93,0.00,,,0.04,Wunderground v.1.15,2013-10-01 03:32:00,
2013-09-30 20:34:00,56.0,54.0,29.94,West,280,0.0,0.0,93,0.00,,,0.04,Wunderground v.1.15,2013-10-01 03:34:00,
2013-09-30 20:36:00,59.3,56.7,29.94,West,280,0.0,0.0,91,0.00,,,0.04,Wunderground v.1.15,2013-10-01 03:36:00,
2013-09-30 20:38:00,55.7,53.7,29.94,West,280,0.0,0.0,93,0.00,,,0.04,Wunderground v.1.15,2013-10-01 03:38:00,
2013-09-30 20:40:00,55.7,53.7,29.94,West,280,0.0,0.0,93,0.00,,,0.04,Wunderground v.1.15,2013-10-01 03:40:00,
2013-09-30 20:42:00,59.0,56.7,29.94,West,280,0.0,0.0,92,0.00,,,0.04,Wunderground v.1.15,2013-10-01 03:42:00,
2013-09-30 20:44:00,55.6,53.9,29.94,West,280,0.0,0.0,94,0.00,,,0.04,Wunderground v.1.15,2013-10-01 03:44:00,
2013-09-30 20:46:00,55.7,54.0,29.94,West,280,0.0,0.0,94,0.00,,,0.04,Wunderground v.1.15,2013-10-01 03:46:00,
2013-09-30 20:48:00,58.6,56.3,29.94,West,280,0.0,0.0,92,0.00,,,0.04,Wunderground v.1.15,2013-10-01 03:48:00,
2013-09-30 20:50:00,55.7,54.0,29.94,West,280,0.0,0.0,94,0.00,,,0.04,Wunderground v.1.15,2013-10-01 03:50:00,
2013-09-30 20:52:00,55.7,54.0,29.94,West,280,0.0,0.0,94,0.00,,,0.04,Wunderground v.1.15,2013-10-01 03:52:00,
2013-09-30 20:54:00,58.3,56.0,29.94,West,280,0.0,0.0,92,0.00,,,0.04,Wunderground v.1.15,2013-10-01 03:54:00,
2013-09-30 20:56:00,55.7,54.0,29.94,West,280,0.0,0.0,94,0.00,,,0.04,Wunderground v.1.15,2013-10-01 03:56:00,
2013-09-30 21:00:00,57.8,55.5,29.94,West,280,0.0,0.0,92,0.00,,,0.04,Wunderground v.1.15,2013-10-01 04:00:00,
2013-09-30 21:02:00,55.7,54.0,29.94,West,280,0.0,0.0,94,0.00,,,0.04,Wunderground v.1.15,2013-10-01 04:02:00,
2013-09-30 21:04:00,55.7,54.0,29.94,West,280,0.0,0.0,94,0.00,,,0.04,Wunderground v.1.15,2013-10-01 04:04:00,
2013-09-30 21:06:00,55.7,54.0,29.94,West,280,0.0,0.0,94,0.00,,,0.04,Wunderground v.1.15,2013-10-01 04:06:00,
2013-09-30 21:10:00,55.9,54.5,29.94,West,280,0.0,0.0,95,0.00,,,0.04,Wunderground v.1.15,2013-10-01 04:10:00,
2013-09-30 21:12:00,55.9,54.5,29.94,West,280,0.0,0.0,95,0.00,,,0.04,Wunderground v.1.15,2013-10-01 04:12:00,
2013-09-30 21:14:00,55.9,54.5,29.94,West,280,0.0,0.0,95,0.00,,,0.04,Wunderground v.1.15,2013-10-01 04:14:00,
2013-09-30 21:16:00,55.9,54.5,29.94,West,280,0.0,0.0,95,0.00,,,0.04,Wunderground v.1.15,2013-10-01 04:16:00,
2013-09-30 21:18:00,55.9,54.2,29.94,West,280,0.0,0.0,94,0.00,,,0.04,Wunderground v.1.15,2013-10-01 04:18:00,
2013-09-30 21:20:00,55.7,54.0,29.94,West,280,0.0,0.0,94,0.00,,,0.04,Wunderground v.1.15,2013-10-01 04:20:00,
2013-09-30 21:22:00,55.7,54.0,29.94,West,280,0.0,0.0,94,0.00,,,0.04,Wunderground v.1.15,2013-10-01 04:22:00,
2013-09-30 21:24:00,55.6,53.9,29.94,West,280,0.0,0.0,94,0.00,,,0.04,Wunderground v.1.15,2013-10-01 04:24:00,
2013-09-30 21:26:00,55.6,54.2,29.94,West,280,0.0,0.0,95,0.00,,,0.04,Wunderground v.1.15,2013-10-01 04:26:00,
2013-09-30 21:28:00,55.6,54.2,29.94,West,280,0.0,0.0,95,0.00,,,0.04,Wunderground v.1.15,2013-10-01 04:28:00,
2013-09-30 21:30:00,55.6,54.2,29.94,West,280,0.0,0.0,95,0.00,,,0.04,Wunderground v.1.15,2013-10-01 04:30:00,
2013-09-30 21:32:00,55.6,54.2,29.94,West,267,0.0,0.0,95,0.00,,,0.04,Wunderground v.1.15,2013-10-01 04:32:00,
2013-09-30 21:34:00,55.7,54.3,29.94,WSW,254,0.0,2.0,95,0.00,,,0.04,Wunderground v.1.15,2013-10-01 04:34:00,
2013-09-30 21:36:00,55.9,54.8,29.94,NW,306,1.0,2.0,96,0.00,,,0.04,Wunderground v.1.15,2013-10-01 04:36:00,
2013-09-30 21:38:00,56.2,55.1,29.94,WNW,297,1.0,2.0,96,0.00,,,0.04,Wunderground v.1.15,2013-10-01 04:38:00,
2013-09-30 21:40:00,56.5,55.4,29.94,WNW,288,2.0,3.0,96,0.00,,,0.04,Wunderground v.1.15,2013-10-01 04:40:00,
2013-09-30 21:42:00,56.6,55.5,29.94,WNW,284,2.0,4.0,96,0.00,,,0.04,Wunderground v.1.15,2013-10-01 04:42:00,
2013-09-30 21:44:00,56.7,55.6,29.94,NW,311,3.0,5.0,96,0.00,,,0.04,Wunderground v.1.15,2013-10-01 04:44:00,
2013-09-30 21:46:00,56.7,55.6,29.94,WNW,294,3.0,5.0,96,0.00,,,0.04,Wunderground v.1.15,2013-10-01 04:46:00,
2013-09-30 21:48:00,56.6,55.5,29.94,WNW,300,3.0,5.0,96,0.00,,,0.04,Wunderground v.1.15,2013-10-01 04:48:00,
2013-09-30 21:50:00,56.6,55.2,29.94,NW,324,3.0,6.0,95,0.00,,,0.04,Wunderground v.1.15,2013-10-01 04:50:00,
2013-09-30 21:52:00,56.5,55.1,29.94,West,267,3.0,6.0,95,0.00,,,0.04,Wunderground v.1.15,2013-10-01 04:52:00,
2013-09-30 21:54:00,56.2,54.8,29.94,North,5,2.0,6.0,95,0.00,,,0.04,Wunderground v.1.15,2013-10-01 04:54:00,
2013-09-30 21:56:00,56.0,54.6,29.94,NNE,13,1.0,6.0,95,0.00,,,0.04,Wunderground v.1.15,2013-10-01 04:56:00,
2013-09-30 21:58:00,55.9,54.2,29.94,WNW,284,1.0,6.0,94,0.00,,,0.04,Wunderground v.1.15,2013-10-01 04:58:00,
2013-09-30 22:00:00,55.7,54.0,29.94,WNW,297,1.0,1.0,94,0.00,,,0.04,Wunderground v.1.15,2013-10-01 05:00:00,
2013-09-30 22:02:00,55.6,53.9,29.94,WNW,297,0.0,1.0,94,0.00,,,0.04,Wunderground v.1.15,2013-10-01 05:02:00,
2013-09-30 22:04:00,55.6,53.9,29.94,WNW,297,0.0,1.0,94,0.00,,,0.04,Wunderground v.1.15,2013-10-01 05:04:00,
2013-09-30 22:06:00,55.4,53.7,29.94,WNW,297,0.0,1.0,94,0.00,,,0.04,Wunderground v.1.15,2013-10-01 05:06:00,
2013-09-30 22:08:00,55.3,53.6,29.94,WNW,297,0.0,1.0,94,0.00,,,0.04,Wunderground v.1.15,2013-10-01 05:08:00,
2013-09-30 22:10:00,55.1,53.4,29.94,WNW,297,0.0,0.0,94,0.00,,,0.04,Wunderground v.1.15,2013-10-01 05:10:00,
2013-09-30 22:12:00,55.0,53.0,29.94,WNW,297,0.0,0.0,93,0.00,,,0.04,Wunderground v.1.15,2013-10-01 05:12:00,
2013-09-30 22:14:00,55.0,53.0,29.94,WNW,297,0.0,0.0,93,0.00,,,0.04,Wunderground v.1.15,2013-10-01 05:14:00,
2013-09-30 22:16:00,54.8,52.8,29.94,WNW,297,0.0,0.0,93,0.00,,,0.04,Wunderground v.1.15,2013-10-01 05:16:00,
2013-09-30 22:18:00,54.7,52.7,29.94,WNW,297,0.0,0.0,93,0.00,,,0.04,Wunderground v.1.15,2013-10-01 05:18:00,
2013-09-30 22:24:00,54.2,52.2,29.94,WNW,297,0.0,0.0,93,0.00,,,0.04,Wunderground v.1.15,2013-10-01 05:24:00,
2013-09-30 22:26:00,54.2,52.2,29.94,WNW,297,0.0,0.0,93,0.00,,,0.04,Wunderground v.1.15,2013-10-01 05:26:00,
2013-09-30 22:28:00,54.1,52.1,29.94,WNW,297,0.0,1.0,93,0.00,,,0.04,Wunderground v.1.15,2013-10-01 05:28:00,
2013-09-30 22:34:00,53.8,51.5,29.94,WNW,297,0.0,0.0,92,0.00,,,0.04,Wunderground v.1.15,2013-10-01 05:34:00,
2013-09-30 22:36:00,53.6,51.3,29.94,WNW,297,0.0,0.0,92,0.00,,,0.04,Wunderground v.1.15,2013-10-01 05:36:00,
2013-09-30 22:38:00,53.5,51.2,29.94,WNW,298,0.0,0.0,92,0.00,,,0.04,Wunderground v.1.15,2013-10-01 05:38:00,
2013-09-30 22:40:00,53.3,50.7,29.94,WNW,298,0.0,0.0,91,0.00,,,0.04,Wunderground v.1.15,2013-10-01 05:40:00,
2013-09-30 22:42:00,53.2,50.6,29.94,WNW,298,0.0,0.0,91,0.00,,,0.04,Wunderground v.1.15,2013-10-01 05:42:00,
2013-09-30 22:50:00,52.8,49.6,29.94,WNW,286,0.0,0.0,89,0.00,,,0.04,Wunderground v.1.15,2013-10-01 05:50:00,
2013-09-30 22:52:00,52.8,49.6,29.94,WNW,286,0.0,0.0,89,0.00,,,0.04,Wunderground v.1.15,2013-10-01 05:52:00,
2013-09-30 22:54:00,52.6,49.4,29.94,WNW,286,0.0,0.0,89,0.00,,,0.04,Wunderground v.1.15,2013-10-01 05:54:00,
2013-09-30 22:58:00,52.5,49.4,29.94,WNW,286,0.0,0.0,89,0.00,,,0.04,Wunderground v.1.15,2013-10-01 05:58:00,
2013-09-30 23:04:00,52.2,49.1,29.94,WNW,286,0.0,0.0,89,0.00,,,0.00,Wunderground v.1.15,2013-10-01 06:04:00,
2013-09-30 23:10:00,51.9,48.8,29.94,WNW,286,0.0,0.0,89,0.00,,,0.00,Wunderground v.1.15,2013-10-01 06:10:00,
2013-09-30 23:16:00,51.6,48.8,29.94,WNW,286,0.0,0.0,90,0.00,,,0.00,Wunderground v.1.15,2013-10-01 06:16:00,
2013-09-30 23:18:00,51.6,48.8,29.94,WNW,286,0.0,0.0,90,0.00,,,0.00,Wunderground v.1.15,2013-10-01 06:18:00,
2013-09-30 23:20:00,54.5,52.5,29.94,WNW,297,0.0,0.0,93,0.00,,,0.04,Wunderground v.1.15,2013-10-01 06:20:00,
2013-09-30 23:24:00,51.1,48.3,29.94,WNW,286,0.0,0.0,90,0.00,,,0.00,Wunderground v.1.15,2013-10-01 06:24:00,
2013-09-30 23:28:00,51.0,48.5,29.94,WNW,286,0.0,0.0,91,0.00,,,0.00,Wunderground v.1.15,2013-10-01 06:28:00,
2013-09-30 23:30:00,53.9,51.6,29.94,WNW,297,0.0,0.0,92,0.00,,,0.04,Wunderground v.1.15,2013-10-01 06:30:00,
2013-09-30 23:32:00,50.8,48.3,29.94,WNW,286,0.0,0.0,91,0.00,,,0.00,Wunderground v.1.15,2013-10-01 06:32:00,
2013-09-30 23:44:00,53.1,50.5,29.94,WNW,298,0.0,0.0,91,0.00,,,0.04,Wunderground v.1.15,2013-10-01 06:44:00,
2013-09-30 23:56:00,52.6,49.4,29.94,WNW,286,0.0,0.0,89,0.00,,,0.04,Wunderground v.1.15,2013-10-01 06:56:00,